sat.trackr.live / text

‹ back to catalog

STARLINK-37449

NORAD 69488 · 2026-131L

PAYLOAD ACTIVE UNKNOWN

§ Identity

Operator
Country
US
Launch date
2026-06-11
Launch site
AFWTR
Launch vehicle
Mass (kg)
RCS (m²)

Purposes: comms

External: N2YO · Heavens-Above · Gunter

§ Orbital elements

Epoch: 2026-09-20T00:26:23.980704Z

Period
93.91 min
Inclination
97.2844°
Eccentricity
0.0001580
Mean motion
15.33458694 rev/d
Perigee alt
464.4 km
Apogee alt
466.6 km
Semi-major
6,843.6 km
B*
1.4116e-4
RAAN
283.8889°
Arg perigee
93.0988°
Mean anomaly
267.0435°
Rev number
1,682

§ Raw data

STARLINK-374491 69488U 26131L   26263.01833311  .00004487  00000+0  14116-3 0  99952 69488  97.2844 283.8889 0001580  93.0988 267.0435 15.33458694 16820

JSON: /api/v1/satellites/69488 · /tle

For live sub-satellite position, see the globe view (requires WebGL).

§ Visibility from observer

Set your observer location to see the next 7 days of passes ≥ 10°. The values pass through the URL so the page stays shareable.

No JS? Fill the form by hand. The geolocation button needs JavaScript.